Location: Street
(51.1247°N, 2.7429°W)
Time: 09:59:21
(UTC+00:00)

Tiros 1 - Pass Details

Date: 28 November 2020
Orbit: 630 x 663 km, 48.4° (Epoch: 21 January)

Event Time Altitude Azimuth Distance (km) Brightness Sun altitude
Rises 19:48:32 0° 276° (W) 2,988 11.6 -33.6°
Reaches altitude 10° 19:50:56 10° 271° (W) 2,070 10.5 -34.0°
Enters shadow 19:53:01 25° 260° (W) 1,335 9.2 -34.3°
Maximum altitude 19:55:33 49° 197° (SSW) 838 - -34.7°
Drops below altitude 10° 20:00:06 10° 122° (ESE) 2,046 - -35.4°
Sets 20:02:28 0° 117° (ESE) 2,949 - -35.8°
